Volver al catálogo

THORAD AGENA D DEB

ActivoSSO
NORAD 4773·DEBRIS·🇺🇸 United States

Lanzado Apr 8, 1970 desde Vandenberg Space Force Base

Loading…

Próximos Pases

TLE

Source: Space-Track
1  4773U 70025DT  26224.11921718  .00000019  00000-0  92247-4 0  9999
2  4773 100.0234 276.8498 0032317 115.1758 273.2472 13.57124429775689

Sigue THORAD AGENA D DEB en tiempo real con AllMySat

Download on the App Store